Probability
0 0 0 0 0 0 0 0 0 0 0 0 0 0 0 0 0 0 0 0 0 0 0 0 0 0 0 0 0 0 0 0 0 0 0 0 0 0
0 0 0 0 0 0 0 0 0 0 0 0 0 0 0 0 0 0 0 0 0 0 0 0 0 0 0 0 0 0 0 0 0 0 0 0 0 0
0 0 0 0 0 0 0 0 0 0 0 0 0 0 0 0 0 0 0 0 0 0 0 0 0 0 0 0 0 0 0 0 0 0 0 0 0 0
0 0 0 0 0 0 0 0 0 0 0 0 0 0 0 0 0 0 0 0 0 0 0 0 0 0 0 0 0 0 0 0 0 0 0 0 0 0
0 0 0 0 0 0 0 0 0 0 0 0 0 0 0 0 0 0 0 0 0 0 0 0 0 0 0 0 0 0 0 0 0 0 0 0 0 0
0 0 0 0 0 0 0 0 0 0 0 0 0 0 0 0 0 0 0 0 0 0 0 0 0 0 0 0 0 0 0 0 0 0 0 0 0 0
0 0 0 0 0 0 0 0 0 0 0 0 0 0 0 0 0 0 0 0 0 0 0 0 0 0 0 0 0 0 0 0 0 0 0 0 0 0
0 0 0 0 0 0 0 0 0 0 0 0 0 0 0 0 0 0 0 0 0 0 0 0 0 0 0 0 0 0 0 0 0 0 0 0 0 0
0 0 0 0 0 0 0 0 0 0 0 0 0 0 0 0 0 0 0 0 0 0 0 0 0 0 0 0 0 0 0 0 0 0 0 0 0 0
0 0 0 0 0 0 0 0 0 0 0 0 0 0 0 0 0 0 0 0 0 0 0 0 0 0 0 0 0 0 0 0 0 0 0 0 0 0
0 0 0 0 0 0 0 0 0 0 0 0 0 0 0 0 0 0 0 0 0 0 0 0 0 0 0 0 0 0 0 0 0 0 0 0 0 0
0 0 0 0 0 0 0 0 0 0 0 0 0 0 0 0 0 0 0 0 0 0 0 0 0 0 0 0 0 0 0 0 0 0 0 0 0 0
0 0 0 0 0 0 0 0 0 0 0 0 0 0 0 0 0 0 0 0 0 0 0 0 0 0 0 0 0 0 0 0 0 0 0 0 0 0
0 0 0 0 0 0 0 0 0 0 0 0 0 0 0 0 0 0 0 0 0 0 0 0 0 0 0 0 0 0 0 0 0 0 0 0 0 0
0 0 0 0 0 0 0 0 0 0 0 0 0 0 0 0 0 0 0 0 0 0 0 0 0 0 0 0 0 0 0 0 0 0 0 0 0 0
0 0 0 0 0 0 0 0 0 0 0 0 0 0 0 0 0 0 0 0 0 0 0 0 0 0 0 0 0 0 0 0 0 0 0 0 0 0
0 0 0 0 0 0 0 0 0 0 0 0 0 0 0 0 0 0 0 0 0 0 0 0 0 0 0 0 0 0 0 0 0 0 0 0 0 0
0 0 0 0 0 0 0 0 0 0 0 0 0 0 0 0 0 0 0 0 0 0 0 0 0 0 0 0 0 0 0 0 0 0 0 0 0 0
0 0 0 0 0 0 0 0 0 0 0 0 0 0 0 0 0 0 0 0 0 0 0 0 0 0 0 0 0 0 0 0 0 0 0 0 0 0
0 0 0 0 0 0 0 0 0 0 0 0 0 0 0 0 0 0 0 0 0 0 0 0 0 0 0 0 0 0 0 0 0 0 0 0 0 0
0 0 0 0 0 0 0 0 0 0 0 0 0 0 0 0 0 0 0 0 0 0 0 0 0 0 0 0 0 0 0 0 0 0 0 0 0 0
0 0 0 0 0 0 0 0 0 0 0 0 0 0 0 0 0 0 0 0 0 0 0 0 0 0 0 0 0 0 0 0 0 0 0 0 0 0
0 0 0 0 0 0 0 0 0 0 0 0 0 0 0 0 0 0 0 0 0 0 0 0 0 0 0 0 0 0 0 0 0 0 0 0 0 0
Wind_Speed
6 7 6 5 5 5 4 5 5 4 4 4 4 4 5 5 7 6 5 9 9 8 6 4 2 1 2 3 4 5 5 6 5 5 5 6 7 7
4 6 6 4 5 5 5 4 4 5 4 3 4 3 4 6 9 7 7 11 11 9 8 7 5 3 1 1 2 3 4 4 4 4 4 5 5 7
4 5 6 6 5 5 5 5 5 4 5 3 2 2 4 4 5 5 5 6 5 10 10 9 7 6 5 3 2 2 3 3 3 3 2 3 4 5
2 3 4 4 6 6 6 7 6 6 5 5 3 2 3 4 4 5 5 5 5 9 11 10 10 9 7 6 5 4 3 3 3 2 1 1 2 3
1 2 2 3 4 4 6 6 5 6 4 4 3 2 2 2 2 3 4 3 5 7 10 11 11 10 9 8 7 6 5 4 3 2 1 0 1 2
1 0 0 1 2 2 3 4 4 5 5 4 3 3 2 2 2 3 3 4 4 4 6 6 9 11 11 10 9 8 7 6 5 4 3 1 1 1
1 1 1 1 2 2 2 2 3 3 4 3 3 3 3 3 3 3 3 2 3 4 3 4 5 5 7 10 12 11 9 8 7 6 5 4 3 2
2 1 2 2 2 3 3 4 4 3 3 3 3 3 3 3 3 3 3 2 2 3 4 4 4 6 6 6 10 12 12 11 10 8 8 6 5 4
3 2 2 2 3 2 3 4 5 7 6 4 4 4 3 4 4 4 4 3 3 2 3 3 3 6 6 7 14 15 15 14 12 11 10 9 8 6
4 4 3 3 3 4 3 3 4 4 5 4 4 4 4 4 4 4 4 3 2 2 4 3 3 4 4 6 13 16 16 15 14 14 12 11 10 8
3 3 4 4 5 5 4 4 4 4 5 8 8 7 7 7 5 3 3 2 3 3 4 3 3 2 3 3 7 14 15 15 15 15 14 12 11 10
1 1 3 4 4 4 4 4 4 3 2 2 3 4 4 4 6 5 4 4 2 2 3 3 2 1 3 2 1 3 7 11 13 14 14 13 12 7
1 0 1 2 1 0 3 3 4 2 1 1 1 0 0 1 2 3 4 4 4 3 3 4 2 2 2 2 1 1 3 3 5 7 11 13 13 11
1 0 1 2 4 4 2 0 0 2 2 1 1 0 0 1 1 1 2 3 3 3 2 4 3 3 2 2 3 1 1 2 3 4 5 8 11 13
1 2 3 5 5 4 5 5 4 2 2 1 1 0 0 0 1 1 1 1 0 1 1 2 3 3 3 3 2 2 2 2 3 4 4 5 6 6
4 5 7 7 4 4 4 4 2 1 1 1 1 1 1 1 1 1 1 1 1 1 1 1 1 2 2 3 3 3 3 2 2 3 4 4 4 6
3 3 3 3 3 3 3 3 2 2 2 1 1 1 1 1 1 1 1 0 1 1 2 1 1 1 3 3 3 4 3 3 3 3 3 3 5 6
4 3 3 3 3 3 3 2 3 3 2 2 2 1 1 1 1 1 0 0 1 2 2 2 1 1 2 3 6 5 4 3 3 4 4 4 4 5
6 5 4 4 4 4 3 3 3 3 2 3 2 2 2 1 1 1 1 1 2 2 2 1 1 2 3 4 3 5 4 2 2 2 4 5 5 3
5 5 5 5 4 4 4 4 4 4 4 3 3 3 2 2 1 1 1 2 2 2 2 2 2 3 3 3 3 2 5 4 3 3 3 3 4 5
5 5 5 5 4 4 4 4 4 4 4 3 3 3 3 2 2 2 2 3 2 2 3 3 3 4 3 3 4 3 2 5 5 3 2 2 2 2
5 5 5 5 4 4 4 4 4 4 5 4 4 4 3 3 3 3 3 3 3 3 4 4 4 2 2 3 5 5 3 2 3 4 4 3 2 2
4 4 4 5 5 4 4 5 5 4 4 4 4 4 4 4 3 3 3 3 3 3 4 3 3 2 2 3 4 4 5 4 2 2 1 1 2 2
Wind_Direction
214 210 211 212 203 200 187 174 170 193 238 244 234 217 202 195 199 199 202 215 210 209 206 200 187 118 42 24 19 16 18 18 28 37 40 41 36 34
211 212 214 208 205 203 201 195 181 177 212 233 229 215 193 203 203 197 204 215 218 213 212 213 212 212 229 322 353 0 2 2 12 27 40 41 36 40
221 218 221 206 204 203 199 197 196 182 208 228 218 192 183 193 190 189 198 208 218 217 214 217 219 222 229 245 277 312 330 340 349 355 26 40 43 48
226 226 227 214 211 205 202 203 201 195 196 213 200 188 194 192 183 188 200 211 214 223 220 220 222 225 227 233 244 263 285 302 312 323 336 25 44 51
218 231 240 225 216 209 206 206 202 199 192 194 194 173 162 146 151 193 204 210 214 223 226 226 225 225 226 228 234 244 256 266 275 283 289 290 79 55
151 173 216 221 226 221 213 208 199 195 191 189 184 173 168 156 154 177 207 210 221 217 223 222 225 229 228 228 231 235 239 245 247 244 231 203 165 139
168 173 217 216 211 210 201 193 193 198 190 188 185 176 174 167 187 178 202 202 226 211 215 221 219 226 227 230 232 233 230 232 235 233 224 214 211 219
207 228 255 253 247 238 227 206 194 193 196 189 190 196 195 186 172 172 169 170 249 201 197 233 201 230 230 224 227 227 226 225 225 225 222 217 217 221
210 222 246 236 230 235 253 245 227 219 204 184 190 199 192 191 175 179 187 197 219 187 171 243 204 237 234 227 226 228 226 224 221 219 218 215 213 216
212 217 234 254 239 217 219 235 242 238 226 216 210 213 207 195 189 188 190 206 232 189 169 236 220 232 238 226 229 225 223 221 219 216 215 213 211 213
218 224 233 248 258 230 209 231 253 259 253 239 232 231 225 214 194 176 183 201 238 224 186 217 241 235 244 239 231 226 222 218 217 216 214 210 209 210
210 241 254 261 268 231 200 212 247 264 240 238 240 242 233 227 213 203 202 208 217 242 191 197 234 214 280 267 269 231 226 224 219 217 215 210 204 201
162 230 311 329 350 134 174 199 236 235 192 191 182 170 159 202 219 213 206 206 211 231 190 181 207 205 248 293 304 256 218 219 215 222 218 214 205 195
133 123 345 42 64 71 87 92 226 133 121 118 115 120 226 264 265 244 225 225 228 239 213 184 200 198 212 251 275 284 246 221 213 218 215 215 215 209
70 73 72 66 60 54 53 64 73 86 104 117 140 202 282 336 37 41 43 50 353 283 236 204 214 208 209 231 247 239 258 242 213 218 214 215 215 210
55 57 61 60 54 48 45 45 49 72 99 110 110 74 51 52 50 44 38 24 360 337 350 319 249 221 226 233 236 243 223 244 220 214 220 223 220 218
59 46 39 37 35 29 32 36 36 46 60 65 81 77 62 56 43 36 39 22 322 314 314 318 305 259 243 233 241 243 236 234 225 201 203 230 226 219
68 55 45 42 38 29 28 31 33 31 34 44 53 51 48 43 24 13 1 310 295 293 292 293 305 311 290 255 227 246 246 244 225 202 206 238 256 225
60 53 46 41 37 36 35 37 32 22 27 42 43 34 31 28 18 354 336 318 306 301 297 290 267 267 281 287 280 221 231 249 229 218 218 227 254 253
48 47 42 37 35 37 36 35 32 29 32 34 32 27 23 18 6 346 327 310 303 301 301 295 270 259 261 277 284 281 219 232 243 250 239 231 251 261
44 44 40 38 36 35 35 36 38 35 28 27 23 17 11 7 355 342 332 323 313 303 300 292 279 278 269 265 268 271 260 227 234 249 256 252 256 253
45 45 41 38 35 32 30 31 33 31 25 21 12 6 0 357 347 339 333 323 308 294 289 288 292 291 254 253 269 279 283 273 248 240 244 245 255 268
39 40 38 33 28 25 23 25 26 23 16 7 1 355 350 343 336 328 320 313 308 309 309 309 308 287 269 272 283 288 288 290 276 265 256 251 253 287